(77713) = 2001 OF47

Discovered at Anderson Mesa on 2001-07-16 by LONEOS.

Orbit

Orbit type: Main Belt

Note: WebGL enabled browser required.

epoch2024-03-31.0
epoch JD2460400.5
perihelion date2021-10-09.73508
perihelion JD2459497.23508
argument of perihelion (°)251.52317
ascending node (°)328.72535
inclination (°)13.93407
eccentricity0.0981634
perihelion distance (AU)2.3699571
Tisserand w.r.t. Jupiter3.4
ΔV w.r.t. Earth (km/sec)10.6
semimajor axis (AU)2.6279230
mean anomaly (°)208.97774
mean daily motion (°/day)0.23135820
aphelion distance (AU)2.886
period (years)4.26
P-vector [x]-0.74876013
P-vector [y]-0.48005423
P-vector [z]-0.45706259
Q-vector [x]0.65094571
Q-vector [y]-0.66259755
Q-vector [z]-0.37045132
absolute magnitude14.76
phase slope0.15
uncertainty0
referenceMPEC 2024-D129
observations used1941
oppositions18
arc length (days)8749
first opposition used2000
last opposition used2024
residual rms (arc-secs)0.65
perturbers coarse indicatorM-v
perturbers precise indicator003Ek
first observation date used2000-03-14.0
last observation date used2024-02-26.0
computer nameMPCLINUX
JD of orbit computation2456966.752869
perihelion JD uncertainty (days)1.7828E-04
argument of perihelion uncertainty (°)4.1563E-05
ascending node uncertainty (°)1.6698E-05
inclination uncertainty (°)7.1701E-06
eccentricity uncertainty 4.4432E-08
perihelion distance uncertainty (AU)1.1869E-07
Minimum Orbit Intersection Distances (in AU)
for orbit epoch: 2460400.5, reference: E2024-DC9
Mercury1.93133
Venus1.68287
Earth1.40717
Mars0.82104
Jupiter2.21314
Saturn6.35733
Uranus15.936
Neptune27.0361

Observations

1981 total observations over interval: 2000 03 14.36605 – 2024 02 26.253019
These data are available for download (format description).

Date (UT) J2000 RA J2000 Dec Magn Location Ref
2000 03 14.36605 12 47 56.35 -21 17 26.3 18.0   704 – Lincoln Laboratory ETS, New Mexico MPS 32868
2000 03 14.37871 12 47 55.69 -21 17 28.4 18.3   704 – Lincoln Laboratory ETS, New Mexico MPS 32868
2000 03 14.39143 12 47 54.99 -21 17 31.9 18.7   704 – Lincoln Laboratory ETS, New Mexico MPS 32868
2000 03 14.40411 12 47 54.26 -21 17 34.1 18.1   704 – Lincoln Laboratory ETS, New Mexico MPS 32868
2000 03 14.41678 12 47 53.55 -21 17 37.3 18.7   704 – Lincoln Laboratory ETS, New Mexico MPS 32868
2000 04 06.28458 12 24 32.80 -21 41 24.0 18.1   704 – Lincoln Laboratory ETS, New Mexico MPS 32868
2000 04 06.29980 12 24 31.77 -21 41 23.7 18.1   704 – Lincoln Laboratory ETS, New Mexico MPS 32868
2000 04 06.31465 12 24 30.71 -21 41 21.6 18.3   704 – Lincoln Laboratory ETS, New Mexico MPS 32868
2000 04 06.32959 12 24 29.74 -21 41 19.4 18.2   704 – Lincoln Laboratory ETS, New Mexico MPS 32868
2001 06 17.40457 22 32 40.00 -14 27 35.2 19.4   644 – Palomar Mountain/NEAT MPS 32868
2001 06 17.41508 22 32 40.14 -14 27 32.8 19.5   644 – Palomar Mountain/NEAT MPS 32868
2001 06 17.42667 22 32 40.30 -14 27 30.1 19.2   644 – Palomar Mountain/NEAT MPS 32868
2001 07 16.41957 22 29 03.95 -13 11 38.6 18.8 R 699 – Lowell Observatory-LONEOS MPS 32498
2001 07 16.43213 22 29 03.50 -13 11 37.8   699 – Lowell Observatory-LONEOS MPS 32498
2001 07 16.44475 22 29 03.05 -13 11 37.5   699 – Lowell Observatory-LONEOS MPS 32498
2001 07 16.45737 22 29 02.66 -13 11 36.4   699 – Lowell Observatory-LONEOS MPS 32498
2001 07 16.49378 22 29 01.77 -13 11 33.6 19.5   608 – Haleakala-AMOS MPS 32498
2001 07 16.50452 22 29 01.42 -13 11 33.3 19.6   608 – Haleakala-AMOS MPS 32498
2001 07 16.51526 22 29 01.06 -13 11 31.9 19.5   608 – Haleakala-AMOS MPS 32498
2001 07 20.38692 22 26 49.86 -13 07 30.8 18.3   704 – Lincoln Laboratory ETS, New Mexico MPS 32498
2001 07 20.39688 22 26 49.46 -13 07 29.6 18.4   704 – Lincoln Laboratory ETS, New Mexico MPS 32498
2001 07 20.40690 22 26 49.11 -13 07 29.7 18.2   704 – Lincoln Laboratory ETS, New Mexico MPS 32498
2001 08 02.59619 22 16 44.53 -13 01 46.8 19.4   608 – Haleakala-AMOS MPS 32868
2001 08 02.60661 22 16 43.96 -13 01 46.5 19.6   608 – Haleakala-AMOS MPS 32868
2001 08 02.61727 22 16 43.38 -13 01 46.2 19.3   608 – Haleakala-AMOS MPS 32868
2001 08 15.33456 22 04 17.37 -13 02 53.7 19.0   608 – Haleakala-AMOS MPS 32868
2001 08 15.34501 22 04 16.67 -13 02 53.5 19.0   608 – Haleakala-AMOS MPS 32868
2001 08 15.35574 22 04 16.00 -13 02 54.5 19.3   608 – Haleakala-AMOS MPS 32868
2001 08 15.54561 22 04 03.80 -13 02 55.7 19.0   608 – Haleakala-AMOS MPS 32868
2001 08 15.55625 22 04 03.13 -13 02 55.8 18.9   608 – Haleakala-AMOS MPS 32868
2001 08 15.56691 22 04 02.44 -13 02 55.8 19.0   608 – Haleakala-AMOS MPS 32868
2001 08 16.27291 22 03 18.81 -13 03 04.0 18.4   704 – Lincoln Laboratory ETS, New Mexico MPS 32868
2001 08 16.28520 22 03 18.08 -13 03 04.8 18.6   704 – Lincoln Laboratory ETS, New Mexico MPS 32868
2001 08 16.29757 22 03 17.28 -13 03 04.1 18.6   704 – Lincoln Laboratory ETS, New Mexico MPS 32868
2001 08 16.30982 22 03 16.45 -13 03 06.0 19.2   704 – Lincoln Laboratory ETS, New Mexico MPS 32868
2001 08 16.32204 22 03 15.64 -13 03 05.0 18.7   704 – Lincoln Laboratory ETS, New Mexico MPS 32868
2001 08 18.28480 22 01 13.05 -13 03 20.3 17.8   704 – Lincoln Laboratory ETS, New Mexico MPS 33371
2001 08 18.29721 22 01 12.28 -13 03 21.3 18.4   704 – Lincoln Laboratory ETS, New Mexico MPS 33371
2001 08 18.30967 22 01 11.46 -13 03 21.1 18.7   704 – Lincoln Laboratory ETS, New Mexico MPS 33371
2001 08 18.32220 22 01 10.69 -13 03 20.9 18.6   704 – Lincoln Laboratory ETS, New Mexico MPS 33371
2001 08 18.65008 22 00 50.16 -13 03 25.0   300 – Bisei Spaceguard Center-BATTeRS MPS 33371
2001 08 18.68860 22 00 47.64 -13 03 24.5   300 – Bisei Spaceguard Center-BATTeRS MPS 33371
2001 08 18.69112 22 00 47.47 -13 03 25.4   300 – Bisei Spaceguard Center-BATTeRS MPS 33371
2001 08 19.27374 22 00 11.08 -13 03 27.6 18.5   704 – Lincoln Laboratory ETS, New Mexico MPS 33371
2001 08 19.28736 22 00 10.19 -13 03 28.4 18.8   704 – Lincoln Laboratory ETS, New Mexico MPS 33371
2001 08 19.30057 22 00 09.40 -13 03 28.7 18.5   704 – Lincoln Laboratory ETS, New Mexico MPS 33371
2001 08 19.31323 22 00 08.59 -13 03 28.0 19.2   704 – Lincoln Laboratory ETS, New Mexico MPS 33371
2001 08 19.32577 22 00 07.81 -13 03 28.5 18.9   704 – Lincoln Laboratory ETS, New Mexico MPS 33371
2001 08 24.19451 21 55 04.52 -13 03 43.0 17.8 R 699 – Lowell Observatory-LONEOS MPS 49340
2001 08 24.22033 21 55 02.91 -13 03 43.6   699 – Lowell Observatory-LONEOS MPS 49340
2001 08 24.24630 21 55 01.26 -13 03 43.3   699 – Lowell Observatory-LONEOS MPS 49340
2001 08 24.27200 21 54 59.64 -13 03 43.6   699 – Lowell Observatory-LONEOS MPS 49340
2001 08 25.86377 21 53 21.97 -13 03 38.9 18.1 R 185 – Observatoire Astronomique Jurassien-Vicques MPS 33371
2001 08 25.86910 21 53 21.66 -13 03 38.8 18.1 R 185 – Observatoire Astronomique Jurassien-Vicques MPS 33371
2001 08 25.87639 21 53 21.20 -13 03 38.9 17.9 R 185 – Observatoire Astronomique Jurassien-Vicques MPS 33371
2001 09 07.19064 21 41 42.80 -12 58 52.0 18.4   704 – Lincoln Laboratory ETS, New Mexico MPS 34468
2001 09 07.20447 21 41 42.12 -12 58 50.9 18.8   704 – Lincoln Laboratory ETS, New Mexico MPS 34468
2001 09 07.21830 21 41 41.30 -12 58 50.9 19.1   704 – Lincoln Laboratory ETS, New Mexico MPS 34468
2001 09 07.23214 21 41 40.62 -12 58 50.0 18.9   704 – Lincoln Laboratory ETS, New Mexico MPS 34468
2001 09 08.21416 21 40 51.22 -12 58 04.9 18.3 R 699 – Lowell Observatory-LONEOS MPS 34468
2001 09 08.23601 21 40 49.96 -12 58 04.2   699 – Lowell Observatory-LONEOS MPS 34468
2001 09 08.25792 21 40 48.84 -12 58 02.8   699 – Lowell Observatory-LONEOS MPS 34468
2001 09 08.27989 21 40 47.77 -12 58 01.6   699 – Lowell Observatory-LONEOS MPS 34468
2001 09 12.19513 21 37 42.39 -12 54 22.2 18.9   704 – Lincoln Laboratory ETS, New Mexico MPS 34468
2001 09 12.22384 21 37 41.07 -12 54 20.7 19.1   704 – Lincoln Laboratory ETS, New Mexico MPS 34468
2001 09 12.25196 21 37 39.80 -12 54 18.4 19.4   704 – Lincoln Laboratory ETS, New Mexico MPS 34468
2001 09 17.18089 21 34 16.04 -12 48 12.3 18.9 R 699 – Lowell Observatory-LONEOS MPS 35841
2001 09 17.19642 21 34 15.40 -12 48 11.2   699 – Lowell Observatory-LONEOS MPS 35841
2001 09 17.21197 21 34 14.80 -12 48 09.9   699 – Lowell Observatory-LONEOS MPS 35841
2001 09 17.22755 21 34 14.17 -12 48 07.5   699 – Lowell Observatory-LONEOS MPS 35841
2001 09 18.10882 21 33 41.66 -12 46 51.0 19.3 V 691 – Steward Observatory, Kitt Peak-Spacewatch MPS 35841
2001 09 18.13025 21 33 40.84 -12 46 49.1 19.2 V 691 – Steward Observatory, Kitt Peak-Spacewatch MPS 35841
2001 09 18.15254 21 33 40.00 -12 46 47.2 19.2 V 691 – Steward Observatory, Kitt Peak-Spacewatch MPS 35841
2001 09 20.11752 21 32 31.60 -12 43 43.4 18.8   704 – Lincoln Laboratory ETS, New Mexico MPS 35841
2001 09 20.13180 21 32 31.10 -12 43 42.1 19.2   704 – Lincoln Laboratory ETS, New Mexico MPS 35841
2001 09 20.14618 21 32 30.58 -12 43 40.7 19.2   704 – Lincoln Laboratory ETS, New Mexico MPS 35841
2001 09 20.16043 21 32 30.10 -12 43 39.7 19.3   704 – Lincoln Laboratory ETS, New Mexico MPS 35841
2001 09 20.17467 21 32 29.59 -12 43 38.4 18.9   704 – Lincoln Laboratory ETS, New Mexico MPS 35841
2001 09 22.11789 21 31 28.04 -12 40 19.2 19.0   704 – Lincoln Laboratory ETS, New Mexico MPS 35841
2001 09 22.13407 21 31 27.52 -12 40 16.2 19.6   704 – Lincoln Laboratory ETS, New Mexico MPS 35841
2001 09 22.14834 21 31 27.05 -12 40 16.1 19.5   704 – Lincoln Laboratory ETS, New Mexico MPS 35841
2001 09 22.16261 21 31 26.58 -12 40 14.9 19.0   704 – Lincoln Laboratory ETS, New Mexico MPS 35841
2001 09 22.17688 21 31 26.16 -12 40 12.8 19.3   704 – Lincoln Laboratory ETS, New Mexico MPS 35841
2001 09 23.11462 21 30 58.68 -12 38 29.1 18.6   704 – Lincoln Laboratory ETS, New Mexico MPS 35841
2001 09 23.12896 21 30 58.27 -12 38 26.8 19.1   704 – Lincoln Laboratory ETS, New Mexico MPS 35841
2001 09 23.14329 21 30 57.86 -12 38 25.8 19.1   704 – Lincoln Laboratory ETS, New Mexico MPS 35841
2001 10 18.12805 21 27 23.75 -11 29 02.5 19.5   644 – Palomar Mountain/NEAT MPS 39185
